Terminal Aerodrome Forecast
Issued by NWS Glasgow, MT

Home | Current Version | Previous Version | Text Only | Print | Product List | Glossary On
Versions: 1 2 3 4 5 6 7 8 9 10 11 12 13 14 15 16 17 18 19 20 21
000
FTUS45 KGGW 300709 AAA
TAFGGW
TAF AMD
KGGW 300709Z 3007/3106 VRB06KT 2SM FU FEW020 BKN120
     FM301200 31006KT 5SM FU BKN120
     FM301800 33010KT 6SM FU BKN120=

USA.gov is the U.S. government's official web portal to all federal, state and local government web resources and services.